| time (UTC) | temp C | wind direction | speed KPH | gust KPH | rain 1hr cm | rain 24hr cm | rain mn cm | humidity % | barometer mb |
| 20260502164057 | 17 | 116 | 0.0 | 0.0 | 0.00 | 6.68 | 6.53 | 94 | 1021.8 |
| 20260502163601 | 17 | 122 | 0.0 | 0.0 | 0.00 | 6.68 | 6.53 | 95 | 1021.9 |
| 20260502163058 | 17 | 138 | 0.0 | 0.0 | 0.00 | 6.68 | 6.53 | 95 | 1022.0 |
| 20260502162601 | 17 | 197 | 0.0 | 0.0 | 0.00 | 6.68 | 6.53 | 94 | 1021.8 |
| 20260502162101 | 17 | 143 | 0.0 | 0.0 | 0.00 | 6.68 | 6.53 | 94 | 1021.7 |
| 20260502161557 | 18 | 187 | 0.0 | 0.0 | 0.00 | 6.68 | 6.53 | 93 | 1021.7 |
| 20260502160557 | 18 | 197 | 0.0 | 0.0 | 0.00 | 6.68 | 6.53 | 92 | 1021.6 |
| 20260502152102 | 18 | 140 | 0.0 | 0.0 | 0.00 | 6.68 | 6.53 | 95 | 1020.9 |
| 20260502151604 | 18 | 157 | 0.0 | 0.0 | 0.00 | 6.68 | 6.53 | 94 | 1020.9 |
| 20260502151105 | 18 | 161 | 0.0 | 0.0 | 0.00 | 6.68 | 6.53 | 94 | 1020.7 |
| 20260502150558 | 18 | 141 | 0.0 | 0.0 | 0.00 | 6.68 | 6.53 | 96 | 1020.5 |
| 20260502130557 | 17 | 131 | 0.0 | 0.0 | 0.00 | 6.68 | 6.53 | 100 | 1020.5 |
| 20260502122557 | 17 | 138 | 0.0 | 0.0 | 0.05 | 6.68 | 6.53 | 100 | 1020.0 |
| 20260502122101 | 17 | 127 | 0.0 | 0.0 | 0.05 | 6.68 | 6.53 | 100 | 1020.0 |
| 20260502121601 | 17 | 141 | 0.0 | 0.0 | 0.05 | 6.68 | 6.53 | 100 | 1020.0 |
| 20260502121101 | 17 | 151 | 0.0 | 0.0 | 0.05 | 6.68 | 6.53 | 100 | 1019.6 |
| 20260502120558 | 17 | 149 | 0.0 | 0.0 | 0.05 | 6.68 | 6.53 | 100 | 1019.5 |
| 20260502120111 | 17 | 175 | 0.0 | 0.0 | 0.05 | 6.68 | 6.53 | 100 | 1019.6 |
| 20260502115556 | 17 | 126 | 0.0 | 0.0 | 0.05 | 6.68 | 6.53 | 100 | 1019.3 |
| 20260502115058 | 17 | 123 | 0.0 | 0.0 | 0.05 | 6.68 | 6.53 | 100 | 1019.2 |
| 20260502114557 | 17 | 134 | 0.0 | 0.0 | 0.05 | 6.68 | 6.53 | 100 | 1019.1 |
| 20260502114101 | 17 | 122 | 0.0 | 0.0 | 0.05 | 6.68 | 6.53 | 100 | 1019.1 |
| 20260502113558 | 17 | 113 | 0.0 | 0.0 | 0.05 | 6.68 | 6.53 | 100 | 1019.0 |
| 20260502113056 | 17 | 119 | 0.0 | 0.0 | 0.00 | 6.63 | 6.48 | 100 | 1018.8 |
| 20260502112558 | 17 | 123 | 0.0 | 0.0 | 0.00 | 6.63 | 6.48 | 100 | 1018.7 |
| 20260502112100 | 17 | 65 | 0.0 | 0.0 | 0.00 | 6.63 | 6.48 | 100 | 1018.6 |
| 20260502111057 | 17 | 65 | 0.0 | 0.0 | 0.00 | 6.63 | 6.48 | 100 | 1018.2 |
| 20260502110559 | 17 | 65 | 0.0 | 0.0 | 0.00 | 6.63 | 6.48 | 100 | 1018.3 |
| 20260502110056 | 17 | 65 | 0.0 | 0.0 | 0.00 | 6.63 | 6.48 | 100 | 1018.0 |
| 20260502104556 | 17 | 65 | 0.0 | 0.0 | 0.00 | 6.63 | 6.48 | 100 | 1017.4 |
| 20260502104057 | 17 | 65 | 0.0 | 0.0 | 0.00 | 6.63 | 6.48 | 100 | 1017.3 |
| 20260502103558 | 17 | 65 | 0.0 | 0.0 | 0.00 | 6.63 | 6.48 | 100 | 1017.3 |
| 20260502103058 | 17 | 63 | 0.0 | 0.0 | 0.00 | 6.63 | 6.48 | 100 | 1017.0 |
| 20260502102557 | 17 | 63 | 0.0 | 0.0 | 0.00 | 6.63 | 6.48 | 100 | 1016.9 |
| 20260502102059 | 17 | 63 | 0.0 | 0.0 | 0.00 | 6.63 | 6.48 | 100 | 1016.9 |
| 20260502101104 | 17 | 63 | 0.0 | 0.0 | 0.00 | 6.63 | 6.48 | 100 | 1016.7 |
| 20260502100557 | 17 | 63 | 0.0 | 0.0 | 0.00 | 6.63 | 6.48 | 100 | 1016.6 |
| 20260502091105 | 17 | 62 | 0.0 | 0.0 | 0.00 | 6.63 | 6.48 | 99 | 1015.6 |
| 20260502090600 | 17 | 117 | 0.0 | 0.0 | 0.00 | 6.63 | 6.48 | 99 | 1015.8 |
| 20260502071103 | 17 | 120 | 0.0 | 0.0 | 0.03 | 6.63 | 6.48 | 100 | 1014.6 |
| 20260502070557 | 17 | 120 | 0.0 | 0.0 | 0.03 | 6.63 | 6.48 | 100 | 1014.8 |
| 20260502070100 | 17 | 156 | 0.0 | 0.0 | 0.03 | 6.63 | 6.48 | 100 | 1014.7 |
| 20260502065556 | 17 | 143 | 0.0 | 0.0 | 0.05 | 6.63 | 6.48 | 100 | 1014.8 |
| 20260502065100 | 17 | 143 | 0.0 | 0.0 | 0.08 | 6.63 | 6.48 | 100 | 1014.6 |
| 20260502064600 | 17 | 136 | 0.0 | 0.0 | 0.10 | 6.63 | 6.48 | 100 | 1014.6 |
| 20260502064057 | 17 | 132 | 0.0 | 0.0 | 0.15 | 6.63 | 6.48 | 100 | 1014.4 |
| 20260502063557 | 17 | 132 | 0.0 | 0.0 | 0.20 | 6.63 | 6.48 | 100 | 1014.5 |
| 20260502062600 | 17 | 116 | 0.0 | 0.0 | 0.25 | 6.60 | 6.45 | 100 | 1014.6 |
| 20260502062102 | 17 | 100 | 0.0 | 0.0 | 0.33 | 6.60 | 6.45 | 100 | 1014.4 |
| 20260502061558 | 17 | 207 | 0.0 | 0.0 | 0.38 | 6.60 | 6.45 | 100 | 1014.6 |
| 20260502061058 | 17 | 130 | 0.0 | 0.0 | 0.46 | 6.60 | 6.45 | 100 | 1014.4 |
| 20260502060556 | 17 | 43 | 0.0 | 0.0 | 0.56 | 6.60 | 6.45 | 100 | 1014.0 |
| 20260502055557 | 17 | 136 | 0.0 | 0.0 | 0.66 | 6.58 | 6.43 | 100 | 1012.6 |
| 20260502054601 | 17 | 147 | 0.0 | 0.0 | 0.79 | 6.53 | 6.38 | 100 | 1014.0 |
| 20260502054057 | 17 | 142 | 0.0 | 0.0 | 0.81 | 6.48 | 6.32 | 100 | 1015.0 |
| 20260502053558 | 17 | 133 | 0.0 | 0.0 | 0.84 | 6.43 | 6.27 | 100 | 1015.6 |
| 20260502053100 | 17 | 127 | 0.0 | 0.0 | 0.86 | 6.40 | 6.25 | 100 | 1015.3 |
| 20260502052557 | 17 | 219 | 0.0 | 0.0 | 0.84 | 6.32 | 6.17 | 100 | 1015.3 |
| 20260502051104 | 17 | 330 | 0.0 | 0.0 | 0.79 | 6.12 | 5.97 | 100 | 1015.9 |
| 20260502050558 | 17 | 155 | 0.0 | 0.0 | 0.76 | 6.05 | 5.89 | 100 | 1016.1 |
| 20260502050100 | 17 | 131 | 0.0 | 0.0 | 0.71 | 5.97 | 5.82 | 100 | 1016.2 |
| 20260502045600 | 17 | 144 | 0.0 | 0.0 | 0.66 | 5.89 | 5.74 | 100 | 1016.3 |
| 20260502045103 | 17 | 216 | 0.0 | 0.0 | 0.64 | 5.82 | 5.66 | 100 | 1016.3 |
| 20260502044559 | 17 | 124 | 0.0 | 0.0 | 0.61 | 5.71 | 5.56 | 100 | 1016.6 |
| 20260502044105 | 17 | 128 | 0.0 | 0.0 | 0.61 | 5.66 | 5.51 | 100 | 1016.3 |
| 20260502043558 | 17 | 157 | 0.0 | 0.0 | 0.61 | 5.59 | 5.44 | 100 | 1016.6 |
| 20260502043101 | 17 | 138 | 0.0 | 0.0 | 0.64 | 5.54 | 5.38 | 100 | 1016.2 |
| 20260502042559 | 17 | 117 | 0.0 | 0.0 | 0.61 | 5.46 | 5.31 | 100 | 1016.3 |
| 20260502042100 | 17 | 61 | 0.0 | 0.0 | 0.61 | 5.41 | 5.26 | 100 | 1015.9 |
| 20260502041604 | 17 | 253 | 0.0 | 0.0 | 0.58 | 5.36 | 5.21 | 100 | 1015.7 |
| 20260502041057 | 17 | 197 | 0.0 | 0.0 | 0.56 | 5.31 | 5.16 | 100 | 1015.7 |
| 20260502035601 | 17 | 78 | 0.0 | 0.0 | 0.56 | 5.21 | 5.05 | 100 | 1016.1 |
| 20260502035105 | 17 | 275 | 0.0 | 0.0 | 0.56 | 5.16 | 5.00 | 100 | 1016.7 |
| 20260502034605 | 17 | 111 | 0.0 | 0.0 | 0.56 | 5.11 | 4.95 | 100 | 1016.6 |
| 20260502033557 | 17 | 111 | 0.0 | 0.0 | 0.51 | 4.95 | 4.80 | 100 | 1016.6 |
| 20260502032558 | 17 | 120 | 0.0 | 0.0 | 0.46 | 4.85 | 4.70 | 100 | 1016.3 |
| 20260502032056 | 17 | 111 | 0.0 | 0.0 | 0.43 | 4.80 | 4.65 | 100 | 1016.3 |
| 20260502031102 | 17 | 138 | 0.0 | 0.0 | 0.48 | 4.75 | 4.60 | 100 | 1016.0 |
| 20260502030603 | 17 | 124 | 0.0 | 0.0 | 0.48 | 4.72 | 4.57 | 100 | 1015.7 |
| 20260502030056 | 17 | 126 | 0.0 | 0.0 | 0.48 | 4.67 | 4.52 | 100 | 1015.7 |
| 20260502025558 | 17 | 76 | 0.0 | 0.0 | 0.46 | 4.62 | 4.47 | 100 | 1015.5 |
| 20260502025101 | 17 | 76 | 0.0 | 0.0 | 0.46 | 4.57 | 4.42 | 100 | 1015.8 |
| 20260502024555 | 17 | 76 | 0.0 | 0.0 | 0.51 | 4.55 | 4.39 | 100 | 1015.7 |
| 20260502024056 | 17 | 76 | 0.0 | 0.0 | 0.51 | 4.47 | 4.32 | 100 | 1015.8 |
| 20260502023105 | 17 | 76 | 0.0 | 0.0 | 0.61 | 4.42 | 4.27 | 100 | 1015.4 |
| 20260502022555 | 17 | 76 | 0.0 | 0.0 | 0.64 | 4.39 | 4.24 | 100 | 1015.9 |
| 20260502022055 | 17 | 76 | 0.0 | 0.0 | 0.69 | 4.37 | 4.22 | 100 | 1015.9 |
| 20260502021555 | 17 | 75 | 0.0 | 0.0 | 0.71 | 4.29 | 4.14 | 100 | 1016.0 |
| 20260502021103 | 17 | 149 | 0.0 | 0.0 | 0.86 | 4.27 | 4.11 | 100 | 1016.1 |
| 20260502020559 | 17 | 73 | 0.0 | 0.0 | 0.97 | 4.22 | 4.06 | 100 | 1016.5 |
| 20260502015055 | 17 | 26 | 0.0 | 0.0 | 1.96 | 4.09 | 3.94 | 99 | 1016.9 |
| 20260502014603 | 17 | 26 | 0.0 | 0.0 | 2.21 | 4.04 | 3.89 | 98 | 1016.9 |
| 20260502014055 | 17 | 80 | 0.0 | 0.0 | 2.39 | 3.96 | 3.81 | 98 | 1017.3 |
| 20260502013556 | 17 | 51 | 0.0 | 0.0 | 2.44 | 3.84 | 3.68 | 97 | 1017.1 |
| 20260502013103 | 17 | 11 | 0.0 | 0.0 | 2.67 | 3.81 | 3.66 | 97 | 1017.0 |
| 20260502012555 | 17 | 45 | 0.0 | 0.0 | 2.67 | 3.73 | 3.58 | 99 | 1016.5 |
| 20260502012055 | 16 | 329 | 0.0 | 0.0 | 2.62 | 3.66 | 3.51 | 99 | 1016.8 |
| 20260502011558 | 16 | 309 | 0.0 | 0.0 | 2.57 | 3.56 | 3.40 | 100 | 1016.3 |
| 20260502011056 | 16 | 243 | 0.0 | 0.0 | 2.79 | 3.38 | 3.23 | 100 | 1017.3 |
| 20260502010556 | 16 | 343 | 0.0 | 0.0 | 2.97 | 3.17 | 3.02 | 100 | 1017.4 |
| 20260502005601 | 16 | 282 | 0.0 | 0.0 | 2.24 | 2.41 | 2.26 | 100 | 1018.0 |
| 20260502005059 | 17 | 187 | 0.0 | 0.0 | 1.93 | 2.11 | 1.96 | 100 | 1018.4 |
| 20260502004555 | 17 | 236 | 0.0 | 0.0 | 1.55 | 1.73 | 1.57 | 100 | 1017.8 |
| 20260502004059 | 17 | 202 | 0.0 | 0.0 | 1.35 | 1.52 | 1.37 | 99 | 1017.4 |
| 20260502003555 | 17 | 207 | 0.0 | 0.0 | 1.14 | 1.32 | 1.17 | 99 | 1017.0 |
| 20260502003055 | 17 | 187 | 0.0 | 0.0 | 0.97 | 1.14 | 0.99 | 97 | 1017.7 |
| 20260502002558 | 17 | 284 | 0.0 | 0.0 | 0.86 | 1.04 | 0.89 | 96 | 1016.6 |
| 20260502002055 | 17 | 226 | 0.0 | 0.0 | 0.84 | 1.02 | 0.86 | 96 | 1017.0 |
| 20260502001559 | 17 | 213 | 0.0 | 0.0 | 0.81 | 0.99 | 0.84 | 97 | 1016.2 |
| 20260502001105 | 17 | 213 | 0.0 | 0.0 | 0.23 | 0.41 | 0.25 | 97 | 1017.0 |
| 20260502000559 | 17 | 154 | 0.0 | 0.0 | 0.03 | 0.20 | 0.05 | 96 | 1017.5 |
| 20260502000059 | 17 | 224 | 0.0 | 0.0 | 0.00 | 0.18 | 0.03 | 97 | 1013.7 |
| 20260501235559 | 17 | 45 | 0.0 | 0.0 | 0.03 | 0.18 | 0.03 | 97 | 1014.6 |
| 20260501235055 | 17 | 91 | 0.0 | 0.0 | 0.03 | 0.18 | 0.03 | 97 | 1015.6 |
| 20260501234559 | 17 | 78 | 0.0 | 0.0 | 0.03 | 0.18 | 0.03 | 97 | 1016.0 |
| 20260501234101 | 17 | 351 | 0.0 | 0.0 | 0.03 | 0.18 | 0.03 | 97 | 1015.7 |
| 20260501233559 | 17 | 312 | 0.0 | 0.0 | 0.03 | 0.18 | 0.03 | 97 | 1014.8 |
| 20260501233056 | 17 | 350 | 0.0 | 0.0 | 0.03 | 0.18 | 0.03 | 97 | 1015.1 |
| 20260501232618 | 17 | 350 | 0.0 | 0.0 | 0.03 | 0.18 | 0.03 | 97 | 1014.9 |
| 20260501232055 | 17 | 350 | 0.0 | 0.0 | 0.03 | 0.18 | 0.03 | 97 | 1015.1 |
| 20260501231555 | 17 | 350 | 0.0 | 0.0 | 0.03 | 0.18 | 0.03 | 96 | 1014.5 |
| 20260501231102 | 17 | 350 | 0.0 | 0.0 | 0.03 | 0.18 | 0.03 | 96 | 1014.5 |
| 20260501230601 | 17 | 350 | 0.0 | 0.0 | 0.03 | 0.18 | 0.03 | 96 | 1015.0 |
| 20260501230059 | 17 | 350 | 0.0 | 0.0 | 0.03 | 0.18 | 0.03 | 96 | 1015.1 |
| 20260501225557 | 17 | 321 | 0.0 | 0.0 | 0.00 | 0.15 | 0.00 | 96 | 1015.4 |
| 20260501225057 | 17 | 321 | 0.0 | 0.0 | 0.00 | 0.15 | 0.00 | 95 | 1015.5 |
| 20260501224602 | 17 | 342 | 0.0 | 0.0 | 0.00 | 0.15 | 0.00 | 95 | 1015.3 |
| 20260501223100 | 17 | 288 | 0.0 | 0.0 | 0.00 | 0.15 | 0.00 | 95 | 1015.5 |
| 20260501222558 | 17 | 351 | 0.0 | 0.0 | 0.00 | 0.15 | 0.00 | 95 | 1015.6 |
| 20260501222103 | 17 | 238 | 0.0 | 0.0 | 0.00 | 0.15 | 0.00 | 95 | 1015.9 |
| 20260501221559 | 17 | 242 | 0.0 | 0.0 | 0.00 | 0.15 | 0.00 | 96 | 1015.7 |
| 20260501220600 | 17 | 279 | 0.0 | 0.0 | 0.00 | 0.15 | 0.15 | 96 | 1016.0 |
| 20260501220058 | 16 | 151 | 0.0 | 0.0 | 0.00 | 0.15 | 0.15 | 96 | 1016.0 |
| 20260501215603 | 16 | 224 | 0.0 | 0.0 | 0.00 | 0.15 | 0.15 | 96 | 1016.2 |
| 20260501215058 | 17 | 282 | 0.0 | 0.0 | 0.00 | 0.15 | 0.15 | 96 | 1016.4 |
| 20260501214604 | 17 | 37 | 0.0 | 0.0 | 0.00 | 0.15 | 0.15 | 96 | 1016.6 |
| 20260501213602 | 17 | 278 | 0.0 | 0.0 | 0.00 | 0.15 | 0.15 | 94 | 1017.4 |
| 20260501212602 | 17 | 187 | 0.0 | 0.0 | 0.00 | 0.15 | 0.15 | 94 | 1017.5 |
| 20260501212107 | 17 | 229 | 0.0 | 0.0 | 0.03 | 0.15 | 0.15 | 95 | 1017.1 |
| 20260501211600 | 17 | 291 | 0.0 | 0.0 | 0.03 | 0.15 | 0.15 | 96 | 1016.9 |
| 20260501211105 | 16 | 322 | 0.0 | 0.0 | 0.08 | 0.15 | 0.15 | 96 | 1016.8 |
| 20260501210558 | 16 | 272 | 0.0 | 0.0 | 0.15 | 0.15 | 0.15 | 96 | 1016.5 |
| 20260501210100 | 16 | 276 | 0.0 | 0.0 | 0.15 | 0.15 | 0.15 | 98 | 1017.1 |
| 20260501205604 | 16 | 201 | 0.0 | 0.0 | 0.15 | 0.15 | 0.15 | 99 | 1016.9 |
| 20260501205058 | 16 | 95 | 0.0 | 0.0 | 0.15 | 0.15 | 0.15 | 99 | 1016.7 |
| 20260501202602 | 17 | 322 | 0.0 | 0.0 | 0.13 | 0.13 | 0.13 | 98 | 1017.0 |
| 20260501202102 | 17 | 253 | 0.0 | 0.0 | 0.13 | 0.13 | 0.13 | 98 | 1017.8 |
| 20260501201604 | 17 | 192 | 0.0 | 0.0 | 0.10 | 0.10 | 0.10 | 96 | 1018.1 |
| 20260501201105 | 17 | 216 | 0.0 | 0.0 | 0.08 | 0.08 | 0.08 | 96 | 1017.5 |
| 20260501200558 | 17 | 228 | 0.0 | 0.0 | 0.00 | 0.00 | 0.00 | 96 | 1017.1 |
| 20260501200057 | 17 | 270 | 0.0 | 0.0 | 0.00 | 0.00 | 0.00 | 96 | 1016.6 |
| 20260501195605 | 17 | 228 | 0.0 | 0.0 | 0.00 | 0.00 | 0.00 | 96 | 1016.7 |
| 20260501195100 | 17 | 291 | 0.0 | 0.0 | 0.00 | 0.00 | 0.00 | 95 | 1016.2 |
| 20260501194601 | 17 | 258 | 0.0 | 0.0 | 0.00 | 0.00 | 0.00 | 94 | 1016.1 |
| 20260501194105 | 17 | 192 | 0.0 | 0.0 | 0.00 | 0.00 | 0.00 | 94 | 1016.1 |
| 20260501193608 | 17 | 230 | 0.0 | 0.0 | 0.00 | 0.00 | 0.00 | 93 | 1016.4 |
| 20260501193059 | 17 | 207 | 0.0 | 0.0 | 0.00 | 0.00 | 0.00 | 92 | 1016.5 |
| 20260501192602 | 18 | 182 | 0.0 | 0.0 | 0.00 | 0.00 | 0.00 | 92 | 1016.5 |
| 20260501192058 | 18 | 197 | 0.0 | 0.0 | 0.00 | 0.00 | 0.00 | 91 | 1016.8 |
| 20260501191610 | 19 | 197 | 0.0 | 0.0 | 0.00 | 0.00 | 0.00 | 91 | 1016.4 |
| 20260501191108 | 20 | 209 | 0.0 | 0.0 | 0.00 | 0.00 | 0.00 | 87 | 1016.1 |
| 20260501190601 | 20 | 208 | 0.0 | 0.0 | 0.00 | 0.00 | 0.00 | 85 | 1015.8 |
| 20260501190057 | 20 | 187 | 0.0 | 0.0 | 0.00 | 0.00 | 0.00 | 84 | 1015.6 |
| 20260501185608 | 20 | 228 | 0.0 | 0.0 | 0.00 | 0.00 | 0.00 | 85 | 1015.3 |
| 20260501184558 | 21 | 132 | 0.0 | 0.0 | 0.00 | 0.00 | 0.00 | 82 | 1015.5 |
| 20260501183601 | 21 | 123 | 0.0 | 0.0 | 0.00 | 0.00 | 0.00 | 88 | 1014.9 |
| 20260501182600 | 21 | 123 | 0.0 | 0.0 | 0.00 | 0.00 | 0.00 | 87 | 1014.6 |
| 20260501182058 | 21 | 123 | 0.0 | 0.0 | 0.00 | 0.00 | 0.00 | 87 | 1014.4 |
| 20260501181604 | 21 | 123 | 0.0 | 0.0 | 0.00 | 0.00 | 0.00 | 86 | 1014.2 |
| 20260501181127 | 22 | 123 | 0.0 | 0.0 | 0.00 | 0.00 | 0.00 | 85 | 1014.2 |
| 20260501180557 | 22 | 123 | 0.0 | 0.0 | 0.00 | 0.00 | 0.00 | 85 | 1014.0 |
| 20260501180100 | 22 | 123 | 0.0 | 0.0 | 0.00 | 0.00 | 0.00 | 85 | 1013.9 |